Airfield :
LOGIN :

Register | Disclaimer

   EN    FR    IT 

 










Legend :    VFR   Marginal VFR   IFR   Intensive IFR   Very Intensive IFR
Visi :
Ceiling :
>= 8 km
>= 3000ft
5 to 8 km
1000 to 3000 ft
1500m to 5 km
500 to 1000 ft
800 to 1500m
200 to 500 ft
< 800m
< 200 ft
Symbols :   Thunderstorms  Fog  Heavy snow  Heavy precipitations  Wind > 20 kt
SIGMETs :     Misc.  Thunderstorms  Icing  Turbulence  Mountain Waves  Volcanic Ashes







- Airport Elevation : 386 ft
- IATA code : QOE


ETNN - Nörvenich Airforce Base

CURRENT METAR :
  • 181520Z 19011KT 9999 BKN260 14/M00 Q1015 BLU+BLU+

EXPIRED METARs :
  • 181420Z 16010KT 9999 SCT260 16/M02 Q1015 BLU+BLU+
  • 181320Z 14006KT 9999 FEW300 17/02 Q1016 BLU+BLU+

TAF TAF ETNN
Valid from the 18 at 15:00 until the 19 at 00:00 UTC


181410Z 1815/1824 17010KT 9999 NSW FEW300 BY ETGL
No reported NOTAMs for that airfield.



MET'MAP, your aeronautical weather chart ! - Copyright ORBIFLY December 2007 - Disclaimer

ORBIFLY MET'MAP TEAM :

Programming & Development : Alexandra Zaïnal
Concept & Development : Baudouin d'Aumeries
Co-Development & Prog : Marc-Olivier Méhu
Technical & hardware support : Manuel Goepfert

Contact : metmap@orbifly.com




SOURCES & CREDITS :

   NOAA